Location: Baumgarten
(49.0970°N, 12.7493°E)
Time: 07:52:43
(UTC+00:00)

Cosmos 1743 Rocket - Pass Details

Date: 05 July 2020
Orbit: 605 x 631 km, 82.6° (Epoch: 04 August)

Event Time Altitude Azimuth Distance (km) Brightness Sun altitude
Exits shadow 23:12:35 37° 153° (SSE) 951 4.0 -18.2°
Maximum altitude 23:14:01 56° 95° (E) 723 3.8 -18.2°
Drops below altitude 10° 23:18:17 10° 17° (NNE) 1,974 7.3 -18.2°
Sets 23:20:33 0° 14° (NNE) 2,886 8.5 -18.2°
